When you browse on this site, cookies collect data to enhance your experience and personalize the content and advertising you see.
Visit our Privacy Policy to learn more. By continuing to use the site, you agree to this use of cookies and data.
  • en Suisse
  • Liste des pays
  • À 7 jours
  • Température de l'eau
  • Carte satellitaire
  • Carte météo
  • Widgets météo
  • user-avatar
    Se connecter

    Météo par heure à Newcastle

    Ce jour, 20 Mars, Mercredi

    Heure Température Précipitation Vent Pression Humidité
    00:00 +19°C° 0 mm 2 m/s 759 mmHg 95%
    01:00 +18°C° 0 mm 2 m/s 759 mmHg 96%
    02:00 +18°C° 0 mm 2 m/s 758 mmHg 96%
    03:00 +18°C° 0 mm 3 m/s 758 mmHg 97%
    04:00 +18°C° 0 mm 2 m/s 758 mmHg 98%
    05:00 +19°C° 0 mm 2 m/s 759 mmHg 97%
    06:00 +19°C° 0 mm 2 m/s 759 mmHg 96%
    07:00 +19°C° 0 mm 3 m/s 759 mmHg 95%
    08:00 +22°C° 0 mm 3 m/s 759 mmHg 84%
    09:00 +25°C° 0 mm 3 m/s 759 mmHg 74%
    10:00 +27°C° 0 mm 3 m/s 759 mmHg 63%
    11:00 +28°C° 0 mm 3 m/s 759 mmHg 62%
    12:00 +28°C° 0 mm 3 m/s 759 mmHg 61%
    13:00 +28°C° 0 mm 3 m/s 758 mmHg 60%
    14:00 +28°C° 0.2 mm 3 m/s 758 mmHg 64%
    15:00 +27°C° 0.2 mm 3 m/s 758 mmHg 69%
    16:00 +27°C° 0.2 mm 3 m/s 758 mmHg 73%
    17:00 +25°C° 0.1 mm 3 m/s 758 mmHg 80%
    18:00 +24°C° 0.1 mm 2 m/s 759 mmHg 87%
    19:00 +21°C° 0.1 mm 2 m/s 759 mmHg 94%
    20:00 +21°C° 0.3 mm 2 m/s 759 mmHg 95%
    21:00 +21°C° 0.3 mm 2 m/s 760 mmHg 96%
    22:00 +22°C° 0.3 mm 1 m/s 760 mmHg 97%
    23:00 +20°C° 0.1 mm 2 m/s 760 mmHg 98%

    Demain, 21 Mars, Jeudi

    Heure Température Précipitation Vent Pression Humidité
    00:00 +20°C° 0.1 mm 2 m/s 760 mmHg 98%
    01:00 +20°C° 0.1 mm 2 m/s 759 mmHg 98%
    02:00 +20°C° 0 mm 2 m/s 759 mmHg 98%
    03:00 +20°C° 0 mm 3 m/s 759 mmHg 98%
    04:00 +20°C° 0 mm 3 m/s 759 mmHg 99%
    05:00 +20°C° 0 mm 3 m/s 759 mmHg 97%
    06:00 +21°C° 0 mm 3 m/s 760 mmHg 96%
    07:00 +21°C° 0 mm 3 m/s 760 mmHg 95%
    08:00 +22°C° 0.1 mm 3 m/s 760 mmHg 91%
    09:00 +22°C° 0.1 mm 3 m/s 761 mmHg 87%
    10:00 +24°C° 0.1 mm 3 m/s 761 mmHg 84%
    11:00 +25°C° 0.2 mm 3 m/s 761 mmHg 79%
    12:00 +27°C° 0.2 mm 3 m/s 760 mmHg 74%
    13:00 +28°C° 0.2 mm 3 m/s 760 mmHg 70%
    14:00 +27°C° 0.2 mm 3 m/s 760 mmHg 71%
    15:00 +27°C° 0.2 mm 3 m/s 759 mmHg 72%
    16:00 +27°C° 0.2 mm 3 m/s 759 mmHg 73%
    17:00 +25°C° 0 mm 3 m/s 760 mmHg 80%
    18:00 +24°C° 0 mm 2 m/s 760 mmHg 87%
    19:00 +21°C° 0 mm 2 m/s 761 mmHg 94%
    20:00 +21°C° 0 mm 2 m/s 761 mmHg 94%
    21:00 +21°C° 0 mm 2 m/s 761 mmHg 95%
    22:00 +21°C° 0 mm 2 m/s 762 mmHg 96%
    23:00 +21°C° 0 mm 2 m/s 762 mmHg 96%

    Après-demain, 22 Mars, Vendredi

    Heure Température Précipitation Vent Pression Humidité
    00:00 +20°C° 0 mm 2 m/s 761 mmHg 97%
    01:00 +20°C° 0 mm 2 m/s 761 mmHg 97%
    02:00 +20°C° 0 mm 2 m/s 761 mmHg 97%
    03:00 +20°C° 0 mm 2 m/s 761 mmHg 97%
    04:00 +20°C° 0 mm 1 m/s 761 mmHg 97%
    05:00 +20°C° 0 mm 2 m/s 761 mmHg 96%
    06:00 +20°C° 0 mm 2 m/s 762 mmHg 95%
    07:00 +20°C° 0 mm 2 m/s 762 mmHg 93%
    08:00 +24°C° 0 mm 2 m/s 762 mmHg 83%
    09:00 +26°C° 0 mm 2 m/s 762 mmHg 73%
    10:00 +28°C° 0 mm 2 m/s 762 mmHg 63%
    11:00 +28°C° 0.1 mm 2 m/s 762 mmHg 62%
    12:00 +28°C° 0.1 mm 3 m/s 761 mmHg 62%
    13:00 +29°C° 0.1 mm 3 m/s 761 mmHg 61%
    14:00 +28°C° 0 mm 3 m/s 760 mmHg 63%
    15:00 +27°C° 0 mm 3 m/s 760 mmHg 65%
    16:00 +27°C° 0 mm 3 m/s 760 mmHg 67%
    17:00 +25°C° 0 mm 2 m/s 760 mmHg 74%
    18:00 +24°C° 0 mm 2 m/s 761 mmHg 81%
    19:00 +22°C° 0 mm 1 m/s 761 mmHg 88%
    20:00 +22°C° 0 mm 1 m/s 761 mmHg 90%
    21:00 +19°C° 0 mm 0 m/s 762 mmHg 91%
    22:00 +19°C° 0 mm 0 m/s 762 mmHg 93%
    23:00 +19°C° 0 mm 0 m/s 761 mmHg 94%

    23 Mars, Samedi

    Heure Température Précipitation Vent Pression Humidité
    00:00 +18°C° 0 mm 0 m/s 761 mmHg 95%
    01:00 +18°C° 0 mm 0 m/s 761 mmHg 96%
    02:00 +18°C° 0 mm 0 m/s 761 mmHg 97%
    03:00 +20°C° 0 mm 1 m/s 760 mmHg 97%
    04:00 +20°C° 0 mm 1 m/s 760 mmHg 97%
    05:00 +20°C° 0 mm 1 m/s 760 mmHg 96%
    06:00 +21°C° 0 mm 1 m/s 760 mmHg 94%
    07:00 +21°C° 0 mm 1 m/s 761 mmHg 93%
    08:00 +23°C° 0 mm 1 m/s 760 mmHg 83%
    09:00 +26°C° 0 mm 1 m/s 760 mmHg 72%
    10:00 +28°C° 0 mm 2 m/s 760 mmHg 62%
    11:00 +30°C° 0 mm 2 m/s 760 mmHg 57%
    12:00 +31°C° 0 mm 2 m/s 759 mmHg 52%
    13:00 +34°C° 0 mm 2 m/s 759 mmHg 46%
    14:00 +33°C° 0 mm 3 m/s 758 mmHg 50%
    15:00 +31°C° 0 mm 3 m/s 758 mmHg 53%
    16:00 +30°C° 0 mm 4 m/s 758 mmHg 57%
    17:00 +28°C° 0 mm 4 m/s 758 mmHg 66%
    18:00 +27°C° 0 mm 4 m/s 758 mmHg 75%
    19:00 +25°C° 0 mm 5 m/s 759 mmHg 83%
    20:00 +23°C° 0 mm 4 m/s 759 mmHg 86%
    21:00 +23°C° 0 mm 4 m/s 759 mmHg 88%
    22:00 +23°C° 0 mm 4 m/s 759 mmHg 90%
    23:00 +23°C° 0 mm 4 m/s 759 mmHg 88%

    24 Mars, Dimanche

    Heure Température Précipitation Vent Pression Humidité
    00:00 +24°C° 0 mm 3 m/s 758 mmHg 87%
    01:00 +24°C° 0 mm 3 m/s 758 mmHg 86%
    02:00 +22°C° 0 mm 3 m/s 758 mmHg 84%
    03:00 +22°C° 0 mm 3 m/s 758 mmHg 82%
    04:00 +22°C° 0 mm 3 m/s 757 mmHg 80%
    05:00 +22°C° 0.1 mm 3 m/s 758 mmHg 81%
    06:00 +23°C° 0.1 mm 2 m/s 758 mmHg 83%
    07:00 +23°C° 0.1 mm 2 m/s 758 mmHg 84%
    08:00 +25°C° 0.3 mm 2 m/s 758 mmHg 73%
    09:00 +28°C° 0.3 mm 2 m/s 758 mmHg 62%
    10:00 +31°C° 0.3 mm 2 m/s 758 mmHg 51%
    11:00 +34°C° 0.1 mm 2 m/s 757 mmHg 45%
    12:00 +36°C° 0.1 mm 2 m/s 757 mmHg 39%
    13:00 +38°C° 0.1 mm 3 m/s 756 mmHg 33%
    14:00 +38°C° 0 mm 3 m/s 756 mmHg 33%
    15:00 +38°C° 0 mm 3 m/s 756 mmHg 34%
    16:00 +39°C° 0 mm 3 m/s 755 mmHg 34%
    17:00 +36°C° 0 mm 3 m/s 756 mmHg 43%
    18:00 +33°C° 0 mm 3 m/s 756 mmHg 53%
    19:00 +30°C° 0 mm 3 m/s 756 mmHg 62%
    20:00 +29°C° 0 mm 3 m/s 756 mmHg 67%
    21:00 +28°C° 0 mm 3 m/s 756 mmHg 72%
    22:00 +27°C° 0 mm 4 m/s 756 mmHg 77%
    23:00 +26°C° 0 mm 3 m/s 756 mmHg 77%

    25 Mars, Lundi

    Heure Température Précipitation Vent Pression Humidité
    00:00 +26°C° 0 mm 3 m/s 755 mmHg 76%
    01:00 +25°C° 0 mm 3 m/s 755 mmHg 76%
    02:00 +25°C° 0.1 mm 3 m/s 755 mmHg 77%
    03:00 +25°C° 0.1 mm 3 m/s 755 mmHg 77%
    04:00 +24°C° 0.1 mm 3 m/s 756 mmHg 78%
    05:00 +24°C° 0.7 mm 3 m/s 756 mmHg 83%
    06:00 +24°C° 0.7 mm 2 m/s 757 mmHg 87%
    07:00 +23°C° 0.7 mm 2 m/s 758 mmHg 92%
    08:00 +24°C° 0.4 mm 2 m/s 758 mmHg 89%
    09:00 +25°C° 0.4 mm 3 m/s 758 mmHg 87%
    10:00 +26°C° 0.4 mm 3 m/s 758 mmHg 84%
    11:00 +28°C° 0 mm 4 m/s 758 mmHg 73%
    12:00 +30°C° 0 mm 4 m/s 757 mmHg 61%
    13:00 +34°C° 0 mm 5 m/s 757 mmHg 49%
    14:00 +33°C° 0 mm 5 m/s 757 mmHg 51%
    15:00 +33°C° 0 mm 4 m/s 757 mmHg 53%
    16:00 +33°C° 0 mm 4 m/s 756 mmHg 54%
    17:00 +30°C° 0 mm 4 m/s 757 mmHg 60%
    18:00 +29°C° 0 mm 3 m/s 757 mmHg 65%
    19:00 +27°C° 0 mm 3 m/s 758 mmHg 71%
    20:00 +26°C° 0.5 mm 3 m/s 758 mmHg 75%
    21:00 +25°C° 0.5 mm 2 m/s 758 mmHg 80%
    22:00 +24°C° 0.5 mm 2 m/s 758 mmHg 84%
    23:00 +24°C° 0.2 mm 2 m/s 758 mmHg 85%
    Voir plus